When you browse on this site, cookies collect data to enhance your experience and personalize the content and advertising you see.
Visit our Privacy Policy to learn more. By continuing to use the site, you agree to this use of cookies and data.
  • In Romania
  • List of Countries
  • For 7 days
  • Water Temperature
  • Satellite Maps
  • Weather Map
  • Weather Widgets
  • user-avatar
    Login

    Hourly Weather Haldwani

    Today, 16 February, Saturday

    Time Temperature Precipitation Wind Pressure Humidity
    00:00 +14°C° 0 mm 2 mps 724 mmHg 76%
    01:00 +14°C° 0 mm 2 mps 724 mmHg 75%
    02:00 +14°C° 0 mm 2 mps 724 mmHg 75%
    03:00 +14°C° 0 mm 2 mps 724 mmHg 74%
    04:00 +13°C° 0 mm 2 mps 724 mmHg 72%
    05:00 +13°C° 0 mm 2 mps 724 mmHg 71%
    06:00 +14°C° 0 mm 2 mps 725 mmHg 68%
    07:00 +15°C° 0 mm 1 mps 725 mmHg 65%
    08:00 +16°C° 0 mm 1 mps 725 mmHg 62%
    09:00 +19°C° 0 mm 1 mps 725 mmHg 56%
    10:00 +21°C° 0 mm 1 mps 725 mmHg 50%
    11:00 +23°C° 0 mm 1 mps 726 mmHg 44%
    12:00 +23°C° 0.2 mm 1 mps 725 mmHg 46%
    13:00 +23°C° 0.2 mm 1 mps 724 mmHg 48%
    14:00 +23°C° 0.2 mm 1 mps 723 mmHg 49%
    15:00 +22°C° 0.3 mm 1 mps 723 mmHg 55%
    16:00 +21°C° 0.3 mm 1 mps 723 mmHg 61%
    17:00 +20°C° 0.3 mm 1 mps 723 mmHg 67%
    18:00 +18°C° 0.1 mm 1 mps 723 mmHg 69%
    19:00 +16°C° 0.1 mm 1 mps 724 mmHg 71%
    20:00 +15°C° 0.1 mm 2 mps 724 mmHg 72%
    21:00 +15°C° 0 mm 2 mps 724 mmHg 73%
    22:00 +15°C° 0 mm 2 mps 725 mmHg 75%
    23:00 +14°C° 0 mm 2 mps 725 mmHg 76%

    Tomorrow, 17 February, Sunday

    Time Temperature Precipitation Wind Pressure Humidity
    00:00 +14°C° 0 mm 2 mps 725 mmHg 75%
    01:00 +14°C° 0 mm 2 mps 724 mmHg 75%
    02:00 +13°C° 0 mm 2 mps 724 mmHg 75%
    03:00 +13°C° 0 mm 2 mps 724 mmHg 74%
    04:00 +13°C° 0 mm 2 mps 724 mmHg 73%
    05:00 +12°C° 0 mm 2 mps 724 mmHg 73%
    06:00 +14°C° 0 mm 2 mps 724 mmHg 69%
    07:00 +15°C° 0 mm 1 mps 724 mmHg 65%
    08:00 +16°C° 0 mm 1 mps 724 mmHg 61%
    09:00 +18°C° 0 mm 2 mps 724 mmHg 54%
    10:00 +20°C° 0 mm 2 mps 724 mmHg 47%
    11:00 +23°C° 0 mm 2 mps 724 mmHg 40%
    12:00 +23°C° 0 mm 2 mps 723 mmHg 40%
    13:00 +24°C° 0 mm 3 mps 722 mmHg 41%
    14:00 +24°C° 0 mm 3 mps 721 mmHg 41%
    15:00 +21°C° 0 mm 3 mps 720 mmHg 48%
    16:00 +20°C° 0 mm 2 mps 720 mmHg 55%
    17:00 +19°C° 0 mm 2 mps 720 mmHg 62%
    18:00 +17°C° 0 mm 2 mps 720 mmHg 66%
    19:00 +16°C° 0 mm 2 mps 721 mmHg 71%
    20:00 +14°C° 0 mm 1 mps 721 mmHg 75%
    21:00 +14°C° 0 mm 1 mps 721 mmHg 75%
    22:00 +14°C° 0 mm 1 mps 721 mmHg 76%
    23:00 +14°C° 0 mm 1 mps 721 mmHg 77%

    Day after tomorrow, 18 February, Monday

    Time Temperature Precipitation Wind Pressure Humidity
    00:00 +14°C° 0 mm 1 mps 721 mmHg 76%
    01:00 +14°C° 0 mm 1 mps 721 mmHg 75%
    02:00 +14°C° 0 mm 1 mps 720 mmHg 74%
    03:00 +14°C° 0 mm 1 mps 720 mmHg 71%
    04:00 +14°C° 0 mm 1 mps 720 mmHg 68%
    05:00 +14°C° 0 mm 1 mps 720 mmHg 65%
    06:00 +15°C° 0 mm 1 mps 720 mmHg 61%
    07:00 +16°C° 0 mm 1 mps 721 mmHg 57%
    08:00 +18°C° 0 mm 1 mps 721 mmHg 53%
    09:00 +20°C° 0 mm 1 mps 721 mmHg 47%
    10:00 +22°C° 0 mm 1 mps 721 mmHg 41%
    11:00 +24°C° 0 mm 2 mps 722 mmHg 35%
    12:00 +25°C° 0 mm 2 mps 721 mmHg 35%
    13:00 +25°C° 0 mm 2 mps 720 mmHg 35%
    14:00 +25°C° 0 mm 3 mps 719 mmHg 36%
    15:00 +24°C° 0 mm 2 mps 719 mmHg 43%
    16:00 +21°C° 0 mm 2 mps 719 mmHg 50%
    17:00 +19°C° 0 mm 2 mps 719 mmHg 57%
    18:00 +19°C° 0.1 mm 2 mps 720 mmHg 60%
    19:00 +19°C° 0.1 mm 1 mps 720 mmHg 62%
    20:00 +18°C° 0.1 mm 1 mps 721 mmHg 65%
    21:00 +18°C° 0.1 mm 1 mps 721 mmHg 66%
    22:00 +16°C° 0.1 mm 1 mps 721 mmHg 67%
    23:00 +16°C° 0.1 mm 2 mps 721 mmHg 69%

    19 February, Tuesday

    Time Temperature Precipitation Wind Pressure Humidity
    00:00 +16°C° 0.2 mm 2 mps 721 mmHg 71%
    01:00 +16°C° 0.2 mm 2 mps 721 mmHg 73%
    02:00 +15°C° 0.2 mm 2 mps 721 mmHg 76%
    03:00 +15°C° 0.2 mm 2 mps 721 mmHg 76%
    04:00 +14°C° 0.2 mm 2 mps 721 mmHg 76%
    05:00 +14°C° 0.2 mm 2 mps 721 mmHg 76%
    06:00 +15°C° 0.1 mm 2 mps 722 mmHg 73%
    07:00 +16°C° 0.1 mm 2 mps 723 mmHg 70%
    08:00 +17°C° 0.1 mm 2 mps 723 mmHg 67%
    09:00 +19°C° 0.1 mm 2 mps 724 mmHg 61%
    10:00 +20°C° 0.1 mm 2 mps 724 mmHg 55%
    11:00 +23°C° 0.1 mm 2 mps 725 mmHg 50%
    12:00 +23°C° 0.1 mm 2 mps 724 mmHg 48%
    13:00 +24°C° 0.1 mm 2 mps 724 mmHg 47%
    14:00 +24°C° 0.1 mm 1 mps 723 mmHg 45%
    15:00 +23°C° 0 mm 1 mps 723 mmHg 50%
    16:00 +22°C° 0 mm 1 mps 723 mmHg 55%
    17:00 +21°C° 0 mm 1 mps 723 mmHg 60%
    18:00 +19°C° 0 mm 1 mps 724 mmHg 62%
    19:00 +18°C° 0 mm 1 mps 725 mmHg 65%
    20:00 +16°C° 0 mm 2 mps 725 mmHg 67%
    21:00 +16°C° 0 mm 2 mps 726 mmHg 68%
    22:00 +15°C° 0 mm 2 mps 726 mmHg 69%
    23:00 +15°C° 0 mm 2 mps 726 mmHg 69%

    20 February, Wednesday

    Time Temperature Precipitation Wind Pressure Humidity
    00:00 +15°C° 0 mm 2 mps 726 mmHg 69%
    01:00 +15°C° 0 mm 2 mps 726 mmHg 68%
    02:00 +15°C° 0 mm 2 mps 726 mmHg 67%
    03:00 +14°C° 0 mm 3 mps 726 mmHg 64%
    04:00 +14°C° 0 mm 3 mps 726 mmHg 62%
    05:00 +14°C° 0 mm 3 mps 726 mmHg 59%
    06:00 +16°C° 0 mm 3 mps 726 mmHg 56%
    07:00 +17°C° 0 mm 2 mps 727 mmHg 53%
    08:00 +18°C° 0 mm 2 mps 727 mmHg 50%
    09:00 +22°C° 0 mm 1 mps 727 mmHg 42%
    10:00 +24°C° 0 mm 1 mps 727 mmHg 35%
    11:00 +27°C° 0 mm 1 mps 727 mmHg 28%
    12:00 +27°C° 0 mm 1 mps 726 mmHg 29%
    13:00 +27°C° 0 mm 1 mps 725 mmHg 30%
    14:00 +27°C° 0 mm 2 mps 724 mmHg 31%
    15:00 +25°C° 0 mm 2 mps 724 mmHg 39%
    16:00 +23°C° 0 mm 2 mps 725 mmHg 46%
    17:00 +22°C° 0 mm 1 mps 725 mmHg 54%
    18:00 +21°C° 0 mm 1 mps 725 mmHg 53%
    19:00 +21°C° 0 mm 1 mps 726 mmHg 52%
    20:00 +19°C° 0 mm 2 mps 727 mmHg 51%
    21:00 +19°C° 0 mm 2 mps 727 mmHg 49%
    22:00 +19°C° 0 mm 2 mps 727 mmHg 48%
    23:00 +19°C° 0 mm 2 mps 727 mmHg 47%

    21 February, Thursday

    Time Temperature Precipitation Wind Pressure Humidity
    00:00 +19°C° 0 mm 3 mps 727 mmHg 46%
    01:00 +18°C° 0 mm 3 mps 726 mmHg 45%
    02:00 +18°C° 0 mm 3 mps 725 mmHg 44%
    03:00 +18°C° 0.1 mm 3 mps 725 mmHg 44%
    04:00 +18°C° 0.1 mm 4 mps 725 mmHg 44%
    05:00 +18°C° 0.1 mm 4 mps 724 mmHg 44%
    06:00 +18°C° 0.2 mm 4 mps 725 mmHg 49%
    07:00 +19°C° 0.2 mm 3 mps 726 mmHg 53%
    08:00 +19°C° 0.2 mm 3 mps 727 mmHg 58%
    09:00 +19°C° 0.2 mm 3 mps 727 mmHg 59%
    10:00 +20°C° 0.2 mm 3 mps 728 mmHg 59%
    11:00 +21°C° 0.2 mm 3 mps 728 mmHg 60%
    12:00 +21°C° 0.2 mm 3 mps 728 mmHg 58%
    13:00 +22°C° 0.2 mm 3 mps 727 mmHg 57%
    14:00 +22°C° 0.2 mm 4 mps 726 mmHg 56%
    15:00 +21°C° 0.2 mm 4 mps 726 mmHg 58%
    16:00 +20°C° 0.2 mm 4 mps 726 mmHg 61%
    17:00 +19°C° 0.2 mm 4 mps 726 mmHg 64%
    18:00 +19°C° 0.2 mm 4 mps 726 mmHg 64%
    19:00 +19°C° 0.2 mm 3 mps 726 mmHg 64%
    20:00 +18°C° 0.2 mm 3 mps 726 mmHg 64%
    21:00 +18°C° 0 mm 3 mps 726 mmHg 63%
    22:00 +18°C° 0 mm 3 mps 726 mmHg 63%
    23:00 +18°C° 0 mm 3 mps 726 mmHg 63%
    Show more